Regional Weather Roundup
Issued by NWS

Home | Current Version | Previous Version | Graphics & Text | Print | Product List | Glossary Off
Versions: 1 2 3 4 5 6 7 8 9 10 11 12 13 14 15 16 17 18 19 20 21 22 23 24 25 26 27 28 29 30 31 32 33 34 35 36 37 38 39 40 41 42 43 44 45 46 47 48 49 50

000
ASUS43 KTOP 222359
RWRKS

WEATHER ROUNDUP FOR KANSAS
NATIONAL WEATHER SERVICE GOODLAND KS
700 PM CDT TUE JUL 22 2014

NOTE:  "FAIR" INDICATES FEW OR NO CLOUDS BELOW 12,000 FEET WITH NO
SIGNIFICANT WEATHER AND/OR OBSTRUCTIONS TO VISIBILITY.

KSZ001>006-013>018-027>032-041>047-230100-
NORTHWEST KANSAS

CITY           SKY/WX    TMP DP  RH WIND       PRES   REMARKS
GOODLAND       SUNNY     95  57  27 SE9       30.17S
6HR MIN TEMP:  90; 6HR MAX TEMP:  96;

HAYS           PTSUNNY   97  66  36 SE9       30.07S HX 100
HILL CITY      SUNNY     98  65  33 SE7       30.09S HX 101
6HR MIN TEMP:  93; 6HR MAX TEMP: 101;

RUSSELL        SUNNY     97  69  40 S9        30.05S HX 103
6HR MIN TEMP:  91; 6HR MAX TEMP:  98;

$$

KSZ061>065-074>080-084>089-230100-
SOUTHWEST KANSAS

CITY           SKY/WX    TMP DP  RH WIND       PRES   REMARKS
DODGE CITY     SUNNY     92  65  40 SE13      30.11S
6HR MIN TEMP:  89; 6HR MAX TEMP:  95;

ELKHART          N/A     91  66  43 E13         N/A
GARDEN CITY    SUNNY     92  69  47 S9        30.11F HX  97
6HR MIN TEMP:  89; 6HR MAX TEMP:  94;

GREAT BEND     SUNNY     97  68  38 S8        30.06R HX 101
LIBERAL        SUNNY     91  63  38 S16G23    30.13S
$$

KSZ066>073-081>083-090>101-230100-
SOUTHEAST KANSAS

CITY           SKY/WX    TMP DP  RH WIND       PRES   REMARKS
CHANUTE        MOSUNNY   93  73  52 SW6       30.03R HX 102
6HR MIN TEMP:  92; 6HR MAX TEMP:  97;

COFFEYVILLE    SUNNY     94  74  52 SW7       30.01F HX 104
6HR MIN TEMP:  90; 6HR MAX TEMP:  97;

HUTCHINSON     SUNNY     99  63  30 S9        30.05R HX 101
6HR MIN TEMP:  96; 6HR MAX TEMP: 102;

MEDICINE LODGE   N/A     97  68  38 CALM      30.05R HX 102
NEWTON         MOSUNNY   97  66  36 S8        30.09S HX 100
PARSONS        MOSUNNY   94  75  54 S6        30.04S HX 105
6HR MIN TEMP:  91; 6HR MAX TEMP:  98;

WICHITA INTL   PTSUNNY   94  71  47 S10       30.04S HX 101
6HR MIN TEMP:  92; 6HR MAX TEMP:  98;

WICHITA JABRA  MOSUNNY   93  72  50 S8        30.05R HX 101
6HR MIN TEMP:  92; 6HR MAX TEMP:  97;

WINFIELD       MOSUNNY   91  76  61 SE9       30.05S HX 103
6HR MIN TEMP:  90; 6HR MAX TEMP:  96;

$$

KSZ007>012-019>026-033>040-048>060-102>105-230100-
NORTHEAST KANSAS

CITY           SKY/WX    TMP DP  RH WIND       PRES   REMARKS
CONCORDIA      SUNNY     95  74  50 NE12      30.04S HX 105
6HR MIN TEMP:  95; 6HR MAX TEMP: 102;

EMPORIA        MOSUNNY   97  66  36 SW5       30.03R HX 100
6HR MIN TEMP:  94; 6HR MAX TEMP: 101;

LAWRENCE       SUNNY     99  72  41 SW6       29.99S HX 108
6HR MIN TEMP:  91; 6HR MAX TEMP: 100;

MANHATTAN      SUNNY    101  67  32 W6        30.00S HX 106
6HR MIN TEMP:  97; 6HR MAX TEMP: 104;

OLATHE IND     MOSUNNY   97  70  41 SW12      30.01F HX 103
6HR MIN TEMP:  93; 6HR MAX TEMP:  99;

OLATHE EXE     MOSUNNY   93  75  55 SW8       30.00F HX 104
6HR MIN TEMP:  89; 6HR MAX TEMP:  96;

SALINA         SUNNY    103  66  30 W6        30.02S HX 107
6HR MIN TEMP:  98; 6HR MAX TEMP: 105;

TOPEKA BILLARD SUNNY    102  68  33 NW7       29.99S HX 108
6HR MIN TEMP:  97; 6HR MAX TEMP: 103;

TOPEKA FORBES  SUNNY    100  69  36 W8        30.01S HX 106
6HR MIN TEMP:  97; 6HR MAX TEMP: 103;

$$


USA.gov is the U.S. government's official web portal to all federal, state and local government web resources and services.